When you browse on this site, cookies collect data to enhance your experience and personalize the content and advertising you see.
Visit our Privacy Policy to learn more. By continuing to use the site, you agree to this use of cookies and data.
  • In Sweden
  • List of Countries
  • For 7 days
  • Water Temperature
  • Weather Map
  • Weather Widgets
  • user-avatar
    Login

    Hourly Weather Chinandega

    Today, 30 May, Saturday

    Time Temperature Precipitation Wind Pressure Humidity
    00:00 +27°C° 0 mm 2 mps 755 mmHg 90%
    01:00 +26°C° 1 mm 2 mps 755 mmHg 91%
    02:00 +26°C° 1 mm 2 mps 754 mmHg 91%
    03:00 +26°C° 1 mm 2 mps 754 mmHg 92%
    04:00 +26°C° 7 mm 2 mps 754 mmHg 94%
    05:00 +26°C° 7 mm 2 mps 754 mmHg 96%
    06:00 +26°C° 7 mm 2 mps 754 mmHg 98%
    07:00 +26°C° 9 mm 3 mps 755 mmHg 97%
    08:00 +26°C° 9 mm 4 mps 755 mmHg 96%
    09:00 +26°C° 9 mm 4 mps 756 mmHg 96%
    10:00 +26°C° 5 mm 4 mps 756 mmHg 95%
    11:00 +26°C° 5 mm 4 mps 756 mmHg 94%
    12:00 +26°C° 5 mm 4 mps 756 mmHg 93%
    13:00 +26°C° 1.1 mm 4 mps 755 mmHg 92%
    14:00 +27°C° 1.1 mm 3 mps 754 mmHg 92%
    15:00 +27°C° 1.1 mm 3 mps 754 mmHg 92%
    16:00 +27°C° 1.2 mm 3 mps 754 mmHg 92%
    17:00 +26°C° 1.2 mm 3 mps 754 mmHg 93%
    18:00 +26°C° 1.2 mm 3 mps 755 mmHg 94%
    19:00 +26°C° 0.7 mm 3 mps 755 mmHg 94%
    20:00 +26°C° 0.7 mm 3 mps 755 mmHg 94%
    21:00 +26°C° 0.7 mm 3 mps 756 mmHg 94%
    22:00 +26°C° 4.3 mm 3 mps 756 mmHg 95%
    23:00 +25°C° 4.3 mm 3 mps 755 mmHg 95%

    Tomorrow, 31 May, Sunday

    Time Temperature Precipitation Wind Pressure Humidity
    00:00 +25°C° 4.3 mm 3 mps 755 mmHg 96%
    01:00 +25°C° 8.1 mm 3 mps 755 mmHg 96%
    02:00 +25°C° 8.1 mm 3 mps 754 mmHg 97%
    03:00 +25°C° 8.1 mm 3 mps 754 mmHg 97%
    04:00 +25°C° 6.9 mm 3 mps 754 mmHg 97%
    05:00 +25°C° 6.9 mm 3 mps 755 mmHg 98%
    06:00 +25°C° 6.9 mm 3 mps 755 mmHg 98%
    07:00 +26°C° 3.1 mm 3 mps 755 mmHg 97%
    08:00 +26°C° 3.1 mm 3 mps 756 mmHg 96%
    09:00 +26°C° 3.1 mm 3 mps 756 mmHg 96%
    10:00 +27°C° 1.2 mm 3 mps 756 mmHg 94%
    11:00 +27°C° 1.2 mm 4 mps 756 mmHg 92%
    12:00 +28°C° 1.2 mm 4 mps 756 mmHg 90%
    13:00 +27°C° 0.9 mm 4 mps 755 mmHg 91%
    14:00 +27°C° 0.9 mm 4 mps 755 mmHg 92%
    15:00 +27°C° 0.9 mm 4 mps 754 mmHg 93%
    16:00 +26°C° 0.8 mm 3 mps 754 mmHg 93%
    17:00 +26°C° 0.8 mm 3 mps 754 mmHg 94%
    18:00 +26°C° 0.8 mm 2 mps 754 mmHg 95%
    19:00 +26°C° 6 mm 2 mps 755 mmHg 95%
    20:00 +26°C° 6 mm 1 mps 756 mmHg 96%
    21:00 +26°C° 6 mm 1 mps 756 mmHg 96%
    22:00 +25°C° 5.8 mm 1 mps 756 mmHg 97%
    23:00 +25°C° 5.8 mm 1 mps 756 mmHg 97%

    Day after tomorrow, 1 June, Monday

    Time Temperature Precipitation Wind Pressure Humidity
    00:00 +25°C° 5.8 mm 1 mps 756 mmHg 98%
    01:00 +25°C° 1.8 mm 1 mps 755 mmHg 98%
    02:00 +25°C° 1.8 mm 2 mps 755 mmHg 98%
    03:00 +25°C° 1.8 mm 2 mps 755 mmHg 97%
    04:00 +25°C° 0.2 mm 2 mps 755 mmHg 97%
    05:00 +25°C° 0.2 mm 2 mps 755 mmHg 96%
    06:00 +25°C° 0.2 mm 2 mps 755 mmHg 96%
    07:00 +26°C° 0.5 mm 2 mps 755 mmHg 95%
    08:00 +26°C° 0.5 mm 2 mps 756 mmHg 94%
    09:00 +26°C° 0.5 mm 1 mps 757 mmHg 93%
    10:00 +26°C° 0.7 mm 1 mps 756 mmHg 93%
    11:00 +26°C° 0.7 mm 1 mps 756 mmHg 92%
    12:00 +27°C° 0.7 mm 1 mps 756 mmHg 92%
    13:00 +26°C° 0.2 mm 1 mps 755 mmHg 92%
    14:00 +26°C° 0.2 mm 1 mps 755 mmHg 93%
    15:00 +26°C° 0.2 mm 1 mps 755 mmHg 94%
    16:00 +26°C° 0.3 mm 1 mps 755 mmHg 94%
    17:00 +26°C° 0.3 mm 1 mps 755 mmHg 94%
    18:00 +26°C° 0.3 mm 1 mps 755 mmHg 95%
    19:00 +26°C° 0.4 mm 1 mps 756 mmHg 95%
    20:00 +25°C° 0.4 mm 1 mps 756 mmHg 95%
    21:00 +25°C° 0.4 mm 1 mps 757 mmHg 96%
    22:00 +25°C° 0.1 mm 1 mps 756 mmHg 95%
    23:00 +26°C° 0.1 mm 1 mps 756 mmHg 94%

    2 June, Tuesday

    Time Temperature Precipitation Wind Pressure Humidity
    00:00 +26°C° 0.1 mm 1 mps 756 mmHg 93%
    01:00 +25°C° 0.1 mm 1 mps 756 mmHg 93%
    02:00 +25°C° 0.1 mm 1 mps 755 mmHg 93%
    03:00 +25°C° 0.1 mm 1 mps 755 mmHg 93%
    04:00 +25°C° 0.1 mm 1 mps 755 mmHg 93%
    05:00 +25°C° 0.1 mm 1 mps 755 mmHg 93%
    06:00 +25°C° 0.1 mm 1 mps 755 mmHg 92%
    07:00 +26°C° 0 mm 1 mps 756 mmHg 89%
    08:00 +27°C° 0 mm 1 mps 756 mmHg 86%
    09:00 +26°C° 0 mm 0 mps 756 mmHg 83%
    10:00 +30°C° 0 mm 1 mps 756 mmHg 77%
    11:00 +31°C° 0 mm 1 mps 756 mmHg 72%
    12:00 +32°C° 0 mm 1 mps 755 mmHg 66%
    13:00 +32°C° 0 mm 2 mps 755 mmHg 67%
    14:00 +32°C° 0 mm 2 mps 754 mmHg 68%
    15:00 +32°C° 0 mm 2 mps 753 mmHg 69%
    16:00 +31°C° 0 mm 2 mps 754 mmHg 74%
    17:00 +30°C° 0 mm 2 mps 754 mmHg 80%
    18:00 +28°C° 0 mm 2 mps 754 mmHg 86%
    19:00 +28°C° 0.7 mm 2 mps 755 mmHg 87%
    20:00 +27°C° 0.7 mm 1 mps 756 mmHg 89%
    21:00 +27°C° 0.7 mm 1 mps 756 mmHg 90%
    22:00 +26°C° 1.6 mm 1 mps 756 mmHg 92%
    23:00 +26°C° 1.6 mm 2 mps 756 mmHg 94%

    3 June, Wednesday

    Time Temperature Precipitation Wind Pressure Humidity
    00:00 +26°C° 1.6 mm 2 mps 756 mmHg 97%
    01:00 +26°C° 0.5 mm 2 mps 755 mmHg 96%
    02:00 +25°C° 0.5 mm 2 mps 755 mmHg 96%
    03:00 +25°C° 0.5 mm 2 mps 755 mmHg 96%
    04:00 +25°C° 0 mm 2 mps 755 mmHg 95%
    05:00 +26°C° 0 mm 2 mps 755 mmHg 95%
    06:00 +26°C° 0 mm 1 mps 755 mmHg 94%
    07:00 +27°C° 0 mm 1 mps 755 mmHg 88%
    08:00 +28°C° 0 mm 1 mps 755 mmHg 82%
    09:00 +30°C° 0 mm 1 mps 756 mmHg 76%
    10:00 +31°C° 0.2 mm 1 mps 755 mmHg 72%
    11:00 +32°C° 0.2 mm 1 mps 755 mmHg 68%
    12:00 +33°C° 0.2 mm 1 mps 755 mmHg 64%
    13:00 +32°C° 1.4 mm 2 mps 754 mmHg 69%
    14:00 +32°C° 1.4 mm 2 mps 753 mmHg 73%
    15:00 +31°C° 1.4 mm 2 mps 753 mmHg 77%
    16:00 +30°C° 1.1 mm 2 mps 753 mmHg 80%
    17:00 +29°C° 1.1 mm 2 mps 753 mmHg 84%
    18:00 +28°C° 1.1 mm 1 mps 753 mmHg 87%
    19:00 +28°C° 1.6 mm 1 mps 754 mmHg 88%
    20:00 +27°C° 1.6 mm 1 mps 755 mmHg 89%
    21:00 +27°C° 1.6 mm 1 mps 755 mmHg 91%
    22:00 +27°C° 1.2 mm 1 mps 755 mmHg 92%
    23:00 +26°C° 1.2 mm 1 mps 755 mmHg 93%

    4 June, Thursday

    Time Temperature Precipitation Wind Pressure Humidity
    00:00 +26°C° 1.2 mm 2 mps 755 mmHg 94%
    01:00 +26°C° 0.7 mm 2 mps 754 mmHg 95%
    02:00 +26°C° 0.7 mm 2 mps 754 mmHg 96%
    03:00 +25°C° 0.7 mm 2 mps 754 mmHg 96%
    04:00 +25°C° 0.2 mm 2 mps 754 mmHg 96%
    05:00 +25°C° 0.2 mm 2 mps 754 mmHg 96%
    06:00 +25°C° 0.2 mm 2 mps 755 mmHg 97%
    07:00 +26°C° 0 mm 2 mps 755 mmHg 93%
    08:00 +27°C° 0 mm 2 mps 755 mmHg 89%
    09:00 +28°C° 0 mm 2 mps 756 mmHg 85%
    10:00 +30°C° 0 mm 2 mps 755 mmHg 78%
    11:00 +31°C° 0 mm 2 mps 754 mmHg 72%
    12:00 +32°C° 0 mm 2 mps 754 mmHg 65%
    13:00 +34°C° 0 mm 2 mps 753 mmHg 62%
    14:00 +34°C° 0 mm 2 mps 753 mmHg 59%
    15:00 +35°C° 0 mm 2 mps 752 mmHg 57%
    16:00 +32°C° 0.4 mm 2 mps 752 mmHg 67%
    17:00 +30°C° 0.4 mm 2 mps 753 mmHg 77%
    18:00 +28°C° 0.4 mm 3 mps 753 mmHg 88%
    19:00 +28°C° 1 mm 3 mps 754 mmHg 88%
    20:00 +27°C° 1 mm 3 mps 754 mmHg 89%
    21:00 +27°C° 1 mm 3 mps 755 mmHg 90%
    22:00 +27°C° 0.8 mm 2 mps 755 mmHg 90%
    23:00 +27°C° 0.8 mm 2 mps 755 mmHg 90%
    Show more